Weather History for Chariton, IA

Change the Weather History Date:

Thursday, October 25, 2012

  Actual Average Record
Temperature  
Mean Temperature 57 °F -  
Max Temperature 75 °F 61 °F 80 °F (1952)
Min Temperature 39 °F 37 °F 19 °F (1968)
Degree Days  
Heating Degree Days 8    
Growing Degree Days 7 (Base 50)    
Moisture  
Dew Point 44 °F    
Average Humidity 74    
Maximum Humidity 88    
Minimum Humidity 65    
Precipitation  
Precipitation 0.00 in - - ()
Sea Level Pressure  
Sea Level Pressure 29.91 in    
Wind  
Wind Speed 19 mph (WNW)    
Max Wind Speed 24 mph    
Max Gust Speed 34 mph    
Visibility 9 miles    
Events Rain    
Averages and records for this station are not official NWS values.
T = Trace of Precipitation, MM = Missing Value Source: NWS Daily Summary

Daily Weather History Graph

Daily Weather History Graph

Search for Another Location

Airport:

Trip Planner

Search our weather history database for the weather conditions in past years. The results will help you decide how hot, cold, wet, or windy it might be!

Date:

Astronomy

Oct. 25, 2012 Rise Set
Actual Time 7:36 AM CDT 6:17 PM CDT
Civil Twilight 7:08 AM CDT 6:45 PM CDT
Nautical Twilight 6:36 AM CDT 7:17 PM CDT
Astronomical Twilight 6:04 AM CDT 7:49 PM CDT
Moon 4:05 PM CDT (10/25) 3:32 AM CDT (10/25)
Length of Visible Light 11h 37m
Length of Day
10h 40m
Waxing Gibbous, 84% of the Moon is Illuminated
Oct 25
Waxing Gibbous
Oct 29
Full
Nov 6
Last Quarter
Nov 13
New
Nov 20
First Quarter

Hourly Weather History & Observations

Time (CDT) Temp. Windchill Dew Point Humidity Pressure Visibility Wind Dir Wind Speed Gust Speed Precip Events Conditions
12:15 AM 75.2 °F - 64.4 °F 69% 29.69 in 10.0 mi South 18.4 mph 21.9 mph N/A   Mostly Cloudy
12:35 AM 75.2 °F - 64.4 °F 69% 29.68 in 10.0 mi South 19.6 mph - N/A   Overcast
12:55 AM 75.2 °F - 62.6 °F 65% 29.67 in 10.0 mi South 19.6 mph 27.6 mph N/A   Overcast
1:15 AM 75.2 °F - 62.6 °F 65% 29.66 in 10.0 mi South 20.7 mph 27.6 mph N/A   Overcast
1:35 AM 75.2 °F - 62.6 °F 65% 29.66 in 10.0 mi South 18.4 mph 28.8 mph N/A   Scattered Clouds
1:55 AM 73.4 °F - 62.6 °F 69% 29.67 in 10.0 mi South 16.1 mph 24.2 mph N/A   Scattered Clouds
2:35 AM 73.4 °F - 62.6 °F 69% 29.65 in 10.0 mi South 17.3 mph - N/A   Clear
2:55 AM 71.6 °F - 62.6 °F 73% 29.64 in 10.0 mi South 16.1 mph - N/A   Clear
3:15 AM 71.6 °F - 62.6 °F 73% 29.63 in 10.0 mi South 17.3 mph - N/A   Clear
3:35 AM 71.6 °F - 62.6 °F 73% 29.63 in 10.0 mi South 19.6 mph 25.3 mph N/A   Clear
3:55 AM 71.6 °F - 62.6 °F 73% 29.62 in 10.0 mi South 21.9 mph 28.8 mph N/A   Scattered Clouds
4:15 AM 71.6 °F - 62.6 °F 73% 29.61 in 10.0 mi South 21.9 mph 26.5 mph N/A   Mostly Cloudy
4:35 AM 71.6 °F - 62.6 °F 73% 29.60 in 10.0 mi South 24.2 mph 32.2 mph N/A   Scattered Clouds
4:55 AM 71.6 °F - 62.6 °F 73% 29.62 in 10.0 mi South 23.0 mph 28.8 mph N/A   Mostly Cloudy
5:15 AM 71.6 °F - 62.6 °F 73% 29.62 in 10.0 mi South 19.6 mph 26.5 mph N/A   Overcast
5:35 AM 71.6 °F - 62.6 °F 73% 29.62 in 10.0 mi South 21.9 mph 33.4 mph N/A   Overcast
5:55 AM 71.6 °F - 62.6 °F 73% 29.62 in 10.0 mi South 23.0 mph 34.5 mph N/A   Light Drizzle
6:35 AM 71.6 °F - 62.6 °F 73% 29.61 in 10.0 mi SSW 16.1 mph 20.7 mph N/A   Overcast
6:55 AM 62.6 °F - 55.4 °F 77% 29.64 in 5.0 mi WNW 10.4 mph 16.1 mph N/A Rain Rain
7:15 AM 55.4 °F - 51.8 °F 88% 29.67 in 5.0 mi WNW 17.3 mph 21.9 mph N/A Rain Light Rain
7:35 AM 53.6 °F - 48.2 °F 82% 29.68 in 3.0 mi WNW 16.1 mph 21.9 mph N/A   Drizzle
7:55 AM 53.6 °F - 48.2 °F 82% 29.70 in 3.0 mi WNW 12.7 mph - N/A   Drizzle
8:35 AM 48.2 °F - 44.6 °F 87% 29.72 in 5.0 mi NW 15.0 mph 24.2 mph N/A   Haze
8:55 AM 48.2 °F - 42.8 °F 82% 29.74 in 5.0 mi NW 17.3 mph 24.2 mph N/A Rain Rain
9:15 AM 46.4 °F 40.4 °F 42.8 °F 87% 29.75 in 2.5 mi NW 13.8 mph 26.5 mph N/A Rain Rain
9:55 AM 46.4 °F 39.8 °F 41.0 °F 81% 29.76 in 7.0 mi NW 16.1 mph 25.3 mph N/A   Overcast
10:15 AM 44.6 °F 36.6 °F 39.2 °F 81% 29.79 in 4.0 mi NW 19.6 mph 29.9 mph N/A   Heavy Drizzle
10:35 AM 44.6 °F 36.9 °F 39.2 °F 81% 29.81 in 4.0 mi NW 18.4 mph 28.8 mph N/A Rain Rain
10:55 AM 44.6 °F 36.6 °F 39.2 °F 81% 29.83 in 10.0 mi NW 19.6 mph 29.9 mph N/A   Overcast
11:15 AM 44.6 °F 37.8 °F 39.2 °F 81% 29.85 in 10.0 mi NW 15.0 mph 28.8 mph N/A   Overcast
11:35 AM 44.6 °F 36.9 °F 39.2 °F 81% 29.85 in 4.0 mi NNW 18.4 mph 25.3 mph N/A   Drizzle
12:15 PM 42.8 °F 33.8 °F 37.4 °F 81% 29.88 in 10.0 mi NNW 21.9 mph 33.4 mph N/A   Overcast
12:35 PM 42.8 °F 34.5 °F 37.4 °F 81% 29.90 in 10.0 mi NW 18.4 mph 33.4 mph N/A   Overcast
12:55 PM 42.8 °F 34.3 °F 37.4 °F 81% 29.90 in 5.0 mi NW 19.6 mph 28.8 mph N/A   Haze
1:15 PM 42.8 °F 34.3 °F 37.4 °F 81% 29.91 in 5.0 mi NW 19.6 mph 29.9 mph N/A   Haze
1:35 PM 42.8 °F 33.5 °F 37.4 °F 81% 29.92 in 3.0 mi NW 23.0 mph 29.9 mph N/A   Haze
1:55 PM 42.8 °F 33.5 °F 37.4 °F 81% 29.93 in 5.0 mi NNW 23.0 mph 32.2 mph N/A   Haze
2:15 PM 42.8 °F 34.5 °F 37.4 °F 81% 29.95 in 5.0 mi NW 18.4 mph 28.8 mph N/A   Haze
2:35 PM 42.8 °F 33.5 °F 37.4 °F 81% 29.97 in 10.0 mi NW 23.0 mph 31.1 mph N/A   Overcast
2:55 PM 44.6 °F 36.1 °F 37.4 °F 76% 29.98 in 10.0 mi NW 21.9 mph 27.6 mph N/A   Overcast
3:15 PM 44.6 °F 36.9 °F 37.4 °F 76% 29.99 in 10.0 mi NW 18.4 mph 24.2 mph N/A   Overcast
3:35 PM 44.6 °F 37.4 °F 37.4 °F 76% 30.00 in 10.0 mi NW 16.1 mph 27.6 mph N/A   Overcast
3:55 PM 46.4 °F 39.0 °F 37.4 °F 71% 30.01 in 10.0 mi NW 19.6 mph 28.8 mph N/A   Overcast
4:15 PM 46.4 °F 38.3 °F 37.4 °F 71% 30.02 in 10.0 mi NW 23.0 mph 28.8 mph N/A   Overcast
4:35 PM 44.6 °F 36.4 °F 35.6 °F 71% 30.03 in 10.0 mi NW 20.7 mph 29.9 mph N/A   Mostly Cloudy
4:55 PM 44.6 °F 35.9 °F 35.6 °F 71% 30.05 in 10.0 mi NW 23.0 mph 31.1 mph N/A   Scattered Clouds
5:15 PM 44.6 °F 36.1 °F 35.6 °F 71% 30.08 in 10.0 mi NW 21.9 mph 28.8 mph N/A   Mostly Cloudy
5:35 PM 42.8 °F 34.8 °F 35.6 °F 76% 30.10 in 10.0 mi NW 17.3 mph 32.2 mph N/A   Overcast
5:55 PM 42.8 °F 34.3 °F 35.6 °F 76% 30.11 in 10.0 mi NW 19.6 mph 29.9 mph N/A   Overcast
6:15 PM 42.8 °F 34.0 °F 33.8 °F 70% 30.13 in 10.0 mi NW 20.7 mph 32.2 mph N/A   Overcast
6:35 PM 42.8 °F 33.3 °F 33.8 °F 70% 30.14 in 10.0 mi NW 24.2 mph 32.2 mph N/A   Overcast
6:55 PM 42.8 °F 35.4 °F 33.8 °F 70% 30.14 in 10.0 mi NW 15.0 mph 25.3 mph N/A   Overcast
7:15 PM 42.8 °F 35.1 °F 33.8 °F 70% 30.16 in 10.0 mi NW 16.1 mph 25.3 mph N/A   Overcast
7:35 PM 42.8 °F 35.4 °F 33.8 °F 70% 30.18 in 10.0 mi NW 15.0 mph 24.2 mph N/A   Overcast
7:55 PM 42.8 °F 34.8 °F 33.8 °F 70% 30.19 in 10.0 mi NW 17.3 mph 24.2 mph N/A   Overcast
8:15 PM 42.8 °F 34.8 °F 33.8 °F 70% 30.20 in 10.0 mi NW 17.3 mph 24.2 mph N/A   Overcast
8:35 PM 41.0 °F 32.5 °F 30.2 °F 65% 30.22 in 10.0 mi NNW 17.3 mph 24.2 mph N/A   Overcast
8:55 PM 41.0 °F 31.9 °F 30.2 °F 65% 30.23 in 10.0 mi NNW 19.6 mph 26.5 mph N/A   Overcast
9:15 PM 39.2 °F 30.5 °F 30.2 °F 70% 30.23 in 10.0 mi NW 16.1 mph 27.6 mph N/A   Overcast
9:35 PM 39.2 °F 29.3 °F 30.2 °F 70% 30.24 in 10.0 mi NW 20.7 mph 29.9 mph N/A   Overcast
9:55 PM 39.2 °F 30.8 °F 30.2 °F 70% 30.25 in 10.0 mi NNW 15.0 mph 23.0 mph N/A   Overcast
10:15 PM 39.2 °F 31.2 °F 30.2 °F 70% 30.26 in 10.0 mi NNW 13.8 mph 23.0 mph N/A   Overcast
10:35 PM 39.2 °F 30.2 °F 30.2 °F 70% 30.27 in 10.0 mi NNW 17.3 mph 25.3 mph N/A   Overcast
10:55 PM 39.2 °F 30.2 °F 30.2 °F 70% 30.27 in 10.0 mi NW 17.3 mph 27.6 mph N/A   Overcast
11:15 PM 39.2 °F 30.2 °F 28.4 °F 65% 30.28 in 10.0 mi NNW 17.3 mph 26.5 mph N/A   Overcast
11:35 PM 39.2 °F 28.5 °F 28.4 °F 65% 30.28 in 10.0 mi NNW 24.2 mph 29.9 mph N/A   Overcast
11:55 PM 39.2 °F 29.0 °F 28.4 °F 65% 30.29 in 10.0 mi NNW 21.9 mph 27.6 mph N/A   Overcast